ONEWEB-0046, 45447

Orbit data source: Space-Track

ONEWEB-0046, 45447 is a payload satellite owned by One Web (UK) in LEO that was launched on Sat, 21 Mar 2020 UTC via a SOYUZ-2-1B launch vehicle from the Tyuratam Missile And Space Complex (TTMTR). Payload-class satellites include a variety of spacecraft equipped with specific instruments for various scientific and technological missions. These include communications satellites like Starlink; space stations such as the ISS; scientific satellites like the Hubble; Earth observation satellites from companies like Planet Labs, Umbra, and HawkEye 360; GPS; miniature CubeSats for education and research; and military/defense satellites.

Loading next visibility...
Identifier
45447, 2020-020Z
Orbit
LEO
Country
Flag of UKUK
Related business
Manufacturer
One Web
Mission
Operational Commercial Communications
Bus & Motor
ARROW, Unknown motor
Mass
148 kg wet, ~140 kg dry
Launch date (UTC)
2020-03-21 (6 years ago)
Launch vehicle
SOYUZ-2-1B
Launch site
Tyuratam Missile And Space Complex (TTMTR)
Object type
Payload
Rocket body
Debris
Shape & HBR
Trap Box + 2 Pan, 6.7 m
Radar Cross Section
3.464 m², Large (>1 m²)

Expand to show TLE details & history
Last TLE update: 21 hours ago

TLE from 21 hours ago
0 ONEWEB-0046
1 45447U 20020Z   25286.63014172  .00000504  00000-0  13849-2 0  9991
2 45447  87.8820  70.1609 0001501  86.6106 273.5194 13.11415898270298
Epoch: 2025-10-13T15:07Z
TLE epoch observation values (Epoch: 2025-10-13T15:07:24.244Z)
Latitude
0.00001°
Longitude
-179.12028°
Altitude
1,220.506 km
Speed
7.244 km/s
True Right ascension
04h 40m 38s
True Declination
0° 00' 00"
Sunlit
Object was in full shadow at epoch
Visualization orbit readout
Latitude
Unknown
Longitude
Unknown
Altitude
Unknown
Speed
Unknown
Apparent Right ascension
Unknown
Apparent Declination
Unknown
Sunlit
N/A
Visualization observer readout
Local Sidereal Time
06:19:11
Azimuth
Unknown
Elevation
Unknown
Doppler factor
Unknown
Orbital elements
Apogee altitude
1,215.945 km
Perigee altitude
1,213.665 km
Semi-major axis
7,592.942 km
Eccentricity
0.00015
Inclination
87.882°
RAAN
70.1609°
Arg. of periapsis
86.6106°
True anomaly
273.50223°
Mean anomaly
273.5194°
Eccentric anomaly
273.51082°
Mean motion
3.28041 °/min
Orbital period
109.74 mins
BSTAR
0.0013849
Loading maneuver chart data...
Computing Atmospheric mass density...
Loading historical data...
Loading historical data...
Loading historical data...
Loading historical data...
Loading historical data...
Loading historical data...
Loading historical data...

Documentation

Showing up to 5 results
|